Wilmington, DE

5:51 AM EDT on May 25, 2017 (GMT -0400)
New Castle County

Weather History for KILG - May, 2014

Change the Weather History Date:

Wednesday, May 7, 2014

  Actual Average Record
Temperature  
Mean Temperature 57 °F 60 °F  
Max Temperature 65 °F 71 °F 91 °F (2000)
Min Temperature 48 °F 50 °F 33 °F (1970)
Degree Days  
Heating Degree Days 8 6  
Month to date heating degree days 38 46  
Since 1 July heating degree days 5087 4715  
Cooling Degree Days 0 1  
Month to date cooling degree days 3 7  
Year to date cooling degree days 10 19  
Growing Degree Days 6 (Base 50)    
Moisture  
Dew Point 38 °F    
Average Humidity 54    
Maximum Humidity 77    
Minimum Humidity 31    
Precipitation  
Precipitation T in 0.12 in 2.07 in (1908)
Month to date precipitation 0.38 0.82  
Year to date precipitation 19.62 13.93  
Snow  
Snow 0.00 in 0.00 in 0.00 in (1894)
Month to date snowfall 0.0 0.0  
Since 1 July snowfall 56.1 20.2  
Snow Depth 0.00 in    
Sea Level Pressure  
Sea Level Pressure 30.20 in    
Wind  
Wind Speed 7 mph (ESE)    
Max Wind Speed 14 mph    
Max Gust Speed 17 mph    
Visibility 10 miles    
Events      
T = Trace of Precipitation, MM = Missing Value Source: NWS Daily Summary

Daily Weather History Graph

Daily Weather History Graph

Search for Another Location

Airport or City:

Trip Planner

Search our weather history database for the weather conditions in past years. The results will help you decide how hot, cold, wet, or windy it might be!

Date:

Astronomy

May. 07, 2014 Rise Set
Actual Time 5:56 AM EDT 8:02 PM EDT
Civil Twilight 5:26 AM EDT 8:32 PM EDT
Nautical Twilight 4:50 AM EDT 9:08 PM EDT
Astronomical Twilight 4:10 AM EDT 9:48 PM EDT
Moon 1:06 PM EDT (5/7) 1:52 AM EDT (5/7)
Length of Visible Light 15h 05m
Length of Day
14h 06m
First Quarter, 55% of the Moon is Illuminated
May 7
First Quarter
May 14
Full
May 21
Last Quarter
May 28
New
Jun 5
First Quarter

Hourly Weather History & Observations

Time (EDT) Temp. Dew Point Humidity Pressure Visibility Wind Dir Wind Speed Gust Speed Precip Events Conditions
12:51 AM 55.4 °F 32.0 °F 41% 30.11 in 10.0 mi NNE 5.8 mph - N/A   Clear
1:51 AM 55.9 °F 30.0 °F 37% 30.12 in 10.0 mi NNE 4.6 mph - N/A   Clear
2:51 AM 52.0 °F 30.9 °F 45% 30.12 in 10.0 mi North 5.8 mph - N/A   Clear
3:51 AM 52.0 °F 30.9 °F 45% 30.15 in 10.0 mi NE 5.8 mph - N/A   Clear
4:51 AM 48.9 °F 32.0 °F 52% 30.16 in 10.0 mi NE 5.8 mph - N/A   Clear
5:51 AM 48.0 °F 32.0 °F 54% 30.17 in 10.0 mi NE 9.2 mph - N/A   Clear
6:51 AM 51.1 °F 34.0 °F 52% 30.18 in 10.0 mi NNE 8.1 mph - N/A   Clear
7:51 AM 55.9 °F 34.0 °F 44% 30.21 in 10.0 mi NE 6.9 mph - N/A   Clear
8:51 AM 59.0 °F 35.1 °F 41% 30.24 in 10.0 mi ENE 8.1 mph - N/A   Clear
9:51 AM 61.0 °F 35.1 °F 38% 30.24 in 10.0 mi NE 9.2 mph - N/A   Clear
10:51 AM 63.0 °F 33.1 °F 33% 30.25 in 10.0 mi Variable 4.6 mph - N/A   Clear
11:51 AM 64.0 °F 34.0 °F 33% 30.25 in 10.0 mi Calm Calm - N/A   Mostly Cloudy
12:51 PM 63.0 °F 37.0 °F 38% 30.25 in 10.0 mi South 6.9 mph - N/A   Overcast
1:51 PM 63.0 °F 36.0 °F 37% 30.22 in 10.0 mi SSE 9.2 mph - N/A   Overcast
2:51 PM 61.0 °F 39.9 °F 46% 30.22 in 10.0 mi South 9.2 mph - 0.00 in   Overcast
3:51 PM 62.1 °F 42.1 °F 48% 30.22 in 10.0 mi SSE 10.4 mph - 0.00 in   Overcast
4:51 PM 60.8 °F 41.0 °F 48% 30.21 in 10.0 mi SSE 11.5 mph - N/A   Overcast
5:51 PM 60.1 °F 45.0 °F 57% 30.19 in 10.0 mi SSE 9.2 mph - 0.00 in   Mostly Cloudy
6:51 PM 57.9 °F 48.0 °F 70% 30.20 in 10.0 mi South 8.1 mph - 0.00 in   Overcast
7:51 PM 57.0 °F 48.9 °F 74% 30.22 in 10.0 mi South 3.5 mph - N/A   Overcast
8:51 PM 55.9 °F 48.9 °F 77% 30.20 in 10.0 mi SE 5.8 mph - N/A   Mostly Cloudy
9:51 PM 55.9 °F 44.1 °F 64% 30.21 in 10.0 mi SE 6.9 mph - N/A   Partly Cloudy
10:51 PM 55.9 °F 46.0 °F 69% 30.20 in 10.0 mi SE 5.8 mph - N/A   Partly Cloudy
11:51 PM 55.0 °F 46.0 °F 72% 30.19 in 10.0 mi SE 6.9 mph - N/A   Scattered Clouds